FW2418 Weather Reports


Display with metric or nautical units.
time (UTC)temp
F
wind
direction
speed
MPH
gust
MPH
rain 1hr
in
rain 24hr
in
rain mn
in
humidity
%
barometer
mb
20260831001738 82 40 1.0 3.0 0.00 0.00 0.00 88 1014.7
20260831000737 82 79 1.0 4.0 0.00 0.00 0.00 88 1014.7
20260830235705 83 66 1.0 4.0 0.00 0.00 0.00 88 1014.4
20260830234704 83 51 1.0 4.0 0.00 0.00 0.00 88 1014.4
20260830233703 83 14 1.0 3.0 0.00 0.00 0.00 88 1014.4
20260830232703 83 51 1.0 4.0 0.00 0.00 0.00 87 1014.4
20260830231631 83 64 2.0 4.0 0.00 0.00 0.00 86 1014.4
20260830230630 84 111 1.0 3.0 0.00 0.00 0.00 85 1014.4
20260830225629 84 24 1.0 3.0 0.00 0.00 0.00 85 1014.4
20260830224629 84 100 2.0 3.0 0.00 0.00 0.00 84 1014.4
20260830223557 84 42 2.0 4.0 0.00 0.00 0.00 84 1014.4
20260830222556 85 19 1.0 6.0 0.00 0.00 0.00 84 1014.4
20260830221555 85 26 1.0 7.0 0.00 0.00 0.00 83 1014.0
20260830220523 85 75 2.0 5.0 0.00 0.00 0.00 83 1014.0
20260830215522 85 93 2.0 6.0 0.00 0.00 0.00 83 1014.0
20260830214348 85 47 2.0 3.0 0.00 0.00 0.00 82 1014.0
20260830213347 85 24 1.0 4.0 0.00 0.00 0.00 82 1013.7
20260830212346 85 121 1.0 5.0 0.00 0.00 0.00 82 1013.7
20260830211345 85 86 1.0 5.0 0.00 0.00 0.00 82 1013.7
20260830210344 85 76 2.0 8.0 0.00 0.00 0.00 81 1014.0
20260830205312 85 73 1.0 8.0 0.00 0.00 0.00 81 1014.0
20260830204240 86 119 2.0 7.0 0.00 0.00 0.00 80 1014.0
20260830203239 86 116 2.0 7.0 0.00 0.00 0.00 80 1014.0
20260830202238 87 150 2.0 10.0 0.00 0.00 0.00 80 1014.0
20260830201238 87 97 2.0 10.0 0.00 0.00 0.00 77 1014.0
20260830200237 88 122 4.0 9.0 0.00 0.00 0.00 75 1014.4
20260830195236 89 118 3.0 10.0 0.00 0.00 0.00 74 1014.4
20260830194235 90 97 2.0 10.0 0.00 0.00 0.00 71 1014.4
20260830193234 92 114 2.0 9.0 0.00 0.00 0.00 68 1014.4
20260830192233 93 87 2.0 9.0 0.00 0.00 0.00 63 1014.4
20260830191233 93 39 2.0 9.0 0.00 0.00 0.00 61 1014.4
20260830190201 93 53 3.0 7.0 0.00 0.00 0.00 63 1014.4
20260830185200 93 56 2.0 8.0 0.00 0.00 0.00 62 1014.4
20260830184159 93 122 2.0 9.0 0.00 0.00 0.00 63 1014.4
20260830183158 94 60 2.0 10.0 0.00 0.00 0.00 62 1014.7
20260830182157 94 126 2.0 6.0 0.00 0.00 0.00 62 1014.7
20260830181156 93 63 3.0 7.0 0.00 0.00 0.00 64 1014.7
20260830180155 91 32 3.0 8.0 0.00 0.00 0.00 67 1014.7
20260830175154 92 80 3.0 6.0 0.00 0.00 0.00 66 1015.1
20260830174123 91 82 2.0 8.0 0.00 0.00 0.00 68 1015.1
20260830173122 89 28 2.0 9.0 0.00 0.00 0.00 72 1015.4
20260830172121 91 0 3.0 10.0 0.00 0.00 0.00 71 1015.4
20260830171050 91 15 2.0 6.0 0.00 0.00 0.00 70 1015.4
20260830170049 91 6 2.0 5.0 0.00 0.00 0.00 69 1015.7
20260830165048 92 77 0.0 6.0 0.00 0.00 0.00 67 1015.7
20260830164047 92 134 1.0 4.0 0.00 0.00 0.00 65 1016.1
20260830163046 91 18 1.0 6.0 0.00 0.00 0.00 70 1016.1
20260830162045 91 59 2.0 5.0 0.00 0.00 0.00 70 1015.7
20260830161045 90 25 1.0 6.0 0.00 0.00 0.00 72 1015.7
20260830160044 89 127 2.0 7.0 0.00 0.00 0.00 72 1015.7
20260830155043 88 179 1.0 4.0 0.00 0.00 0.00 74 1016.1
20260830154042 88 74 1.0 4.0 0.00 0.00 0.00 76 1016.1
20260830153041 89 51 1.0 4.0 0.00 0.00 0.00 75 1016.4
20260830152040 89 86 1.0 5.0 0.00 0.00 0.00 74 1016.4
20260830151008 89 82 2.0 6.0 0.00 0.00 0.00 75 1016.4
20260830145936 89 24 2.0 5.0 0.00 0.00 0.00 75 1016.4
20260830144936 88 100 2.0 5.0 0.00 0.00 0.00 76 1016.4
20260830143935 87 29 1.0 4.0 0.00 0.00 0.00 78 1016.4
20260830142934 86 76 1.0 6.0 0.00 0.00 0.00 78 1016.4
20260830141933 85 63 2.0 6.0 0.00 0.00 0.00 81 1016.4
20260830140932 85 41 2.0 4.0 0.00 0.00 0.00 82 1016.4
20260830135931 84 43 1.0 5.0 0.00 0.00 0.00 85 1016.4
20260830134931 83 10 1.0 2.0 0.00 0.00 0.00 87 1016.4
20260830133930 83 62 1.0 1.0 0.00 0.00 0.00 89 1016.7
20260830132929 82 38 1.0 2.0 0.00 0.00 0.00 91 1016.4
20260830131857 82 4 1.0 1.0 0.00 0.00 0.00 91 1016.4
20260830130856 82 5 1.0 1.0 0.00 0.00 0.00 90 1016.4
20260830125824 81 0 1.0 1.0 0.00 0.00 0.00 91 1016.4
20260830124752 79 341 0.0 1.0 0.00 0.00 0.00 94 1016.1
20260830123751 78 44 0.0 1.0 0.00 0.00 0.00 98 1016.0
20260830122750 77 36 0.0 1.0 0.00 0.00 0.00 99 1016.0
20260830121749 75 334 0.0 1.0 0.00 0.00 0.00 100 1016.0
20260830120748 75 334 0.0 0.0 0.00 0.00 0.00 100 1016.0
20260830115748 74 334 0.0 0.0 0.00 0.00 0.00 99 1015.7
20260830114747 73 334 0.0 0.0 0.00 0.00 0.00 99 1015.7
20260830113746 73 334 0.0 0.0 0.00 0.00 0.00 99 1015.4
20260830112745 72 335 0.0 0.0 0.00 0.00 0.00 99 1015.4
20260830111744 72 334 0.0 0.0 0.00 0.00 0.00 99 1015.0
20260830110743 72 334 0.0 0.0 0.00 0.00 0.00 99 1015.0
20260830105742 72 335 0.0 0.0 0.00 0.00 0.00 99 1015.0
20260830104742 72 334 0.0 0.0 0.00 0.00 0.00 99 1014.7
20260830103741 72 334 0.0 0.0 0.00 0.00 0.00 99 1014.7
20260830102709 72 334 0.0 0.0 0.00 0.00 0.00 99 1014.7
20260830101708 73 335 0.0 0.0 0.00 0.00 0.00 99 1014.7
20260830100707 73 334 0.0 0.0 0.00 0.00 0.00 99 1014.3
20260830095706 73 334 0.0 0.0 0.00 0.00 0.00 99 1014.4
20260830094705 73 335 0.0 0.0 0.00 0.00 0.00 99 1014.0
20260830093705 73 334 0.0 0.0 0.00 0.00 0.00 99 1014.0
20260830092704 73 334 0.0 0.0 0.00 0.00 0.00 99 1014.4
20260830091703 72 334 0.0 0.0 0.00 0.00 0.00 99 1014.4
20260830090702 72 334 0.0 0.0 0.00 0.00 0.00 98 1014.4
20260830085701 73 334 0.0 0.0 0.00 0.00 0.00 98 1014.4
20260830084700 73 334 0.0 0.0 0.00 0.00 0.00 98 1014.7
20260830083659 73 334 0.0 0.0 0.00 0.00 0.00 98 1014.7
20260830082658 73 334 0.0 0.0 0.00 0.00 0.00 98 1015.0
20260830081657 73 334 0.0 0.0 0.00 0.00 0.00 98 1015.0
20260830080554 73 334 0.0 0.0 0.00 0.00 0.00 98 1015.0
20260830075553 73 335 0.0 0.0 0.00 0.00 0.00 98 1015.0
20260830074552 74 334 0.0 0.0 0.00 0.00 0.00 98 1015.0
20260830073551 74 334 0.0 0.0 0.00 0.00 0.00 98 1015.4
20260830072551 74 335 0.0 0.0 0.00 0.00 0.00 98 1015.4
20260830071550 74 334 0.0 0.0 0.00 0.00 0.00 98 1015.1
20260830070549 74 334 0.0 0.0 0.00 0.00 0.00 98 1015.4
20260830065548 74 334 0.0 0.0 0.00 0.00 0.00 98 1015.4
20260830064548 75 334 0.0 0.0 0.00 0.00 0.00 98 1015.1
20260830063547 75 335 0.0 0.0 0.00 0.00 0.00 98 1015.4
20260830062546 75 334 0.0 0.0 0.00 0.00 0.00 97 1015.1
20260830061545 75 334 0.0 0.0 0.00 0.00 0.00 97 1015.4
20260830060513 75 334 0.0 0.0 0.00 0.00 0.00 97 1015.4
20260830055512 75 334 0.0 0.0 0.00 0.00 0.00 97 1015.4
20260830054440 75 334 0.0 0.0 0.00 0.00 0.00 97 1015.4
20260830053439 75 334 0.0 0.0 0.00 0.00 0.00 97 1015.4
20260830052407 75 334 0.0 0.0 0.00 0.00 0.00 97 1015.4
20260830051406 75 334 0.0 0.0 0.00 0.00 0.00 97 1015.1
20260830050405 75 334 0.0 0.0 0.00 0.00 0.00 97 1015.1
20260830045405 75 334 0.0 0.0 0.00 0.00 0.00 97 1014.7
20260830044404 75 334 0.0 0.0 0.00 0.00 0.00 96 1015.1
20260830043403 76 335 0.0 0.0 0.00 0.00 0.00 96 1015.1
20260830042402 76 334 0.0 0.0 0.00 0.00 0.00 96 1015.1
20260830041401 76 335 0.0 0.0 0.00 0.00 0.00 95 1015.1
20260830040401 76 334 0.0 0.0 0.00 0.00 0.00 95 1015.1
20260830035257 77 334 0.0 0.0 0.00 0.00 0.00 95 1015.1
20260830034256 77 334 0.0 0.0 0.00 0.00 0.00 94 1015.1
20260830033256 77 334 0.0 0.0 0.00 0.00 0.00 94 1015.1
20260830032255 77 334 0.0 0.0 0.00 0.00 0.00 94 1015.4
20260830031254 77 334 0.0 0.0 0.00 0.00 0.00 94 1015.4
20260830030222 77 334 0.0 0.0 0.00 0.00 0.00 94 1015.4
20260830025221 77 334 0.0 1.0 0.00 0.00 0.00 93 1015.4
20260830024118 77 334 0.0 1.0 0.00 0.00 0.00 93 1015.4
20260830023015 77 18 1.0 1.0 0.00 0.00 0.00 94 1015.7
20260830022014 78 28 1.0 1.0 0.00 0.00 0.00 94 1016.1
20260830021013 78 19 0.0 1.0 0.00 0.00 0.00 93 1016.1
20260830020012 78 27 0.0 2.0 0.00 0.00 0.00 93 1016.1
20260830014940 78 27 0.0 2.0 0.00 0.00 0.00 93 1016.4
20260830013939 78 40 1.0 2.0 0.00 0.00 0.00 92 1016.1
20260830012939 78 46 1.0 1.0 0.00 0.00 0.00 92 1016.1
20260830011938 78 81 1.0 2.0 0.00 0.00 0.00 91 1015.7
20260830010937 79 22 1.0 3.0 0.00 0.00 0.00 91 1015.7
20260830005936 79 108 1.0 1.0 0.00 0.00 0.00 91 1015.7
20260830004935 79 131 1.0 1.0 0.00 0.00 0.00 90 1015.7
20260830003934 79 121 0.0 1.0 0.00 0.00 0.00 90 1015.4
20260830002933 79 122 1.0 1.0 0.00 0.00 0.00 89 1015.4